Date String (YYYY-MM-DD hh:mm:ss) UTC,Instrument flags,Ambient pressure (hPa),Sample flow (lpm),Bypass flow (lpm),Sample temperature (°C),Ambient temperature (°C),ASC tube jacket temperature (°C),LED temperature (°C),Box temperature (°C),Sample RH (%),Span deviation,Mass concentration (μg/m³),Mass concentration (μg/m³),Mass concentration (μg/m³)
DateTimeUTC,F1_M11,P_M11,Q1_M11,Q2_M11,T1_M11,T2_M11,T3_M11,T4_M11,T5_M11,U1_M11,ZSPAN_M11,X0_M11,X2_M11,X1_M11
2021-12-09 02:00:00,,0811.1,5.00,0.00,23.0,22.1,00.0,32.1,24.7,13.1,0000.0,0012.99,0001.52,0000.22
2021-12-09 02:01:00,,0811.0,5.00,0.00,23.0,22.1,00.0,32.1,24.6,13.2,0000.0,0013.55,0001.73,0000.24
2021-12-09 02:02:00,,0811.0,5.02,0.00,23.0,22.1,00.0,32.1,24.6,13.2,0000.0,0014.17,0001.83,0000.24
2021-12-09 02:03:00,,0810.6,4.98,0.00,23.0,22.1,00.0,32.1,24.6,13.1,0000.0,0014.30,0001.97,0000.25
2021-12-09 02:04:00,,0810.7,5.00,0.00,23.0,22.1,00.0,32.1,24.7,13.1,0000.0,0015.18,0002.21,0000.27
2021-12-09 02:05:00,,0810.7,5.01,0.00,23.0,22.1,00.0,32.0,24.8,13.4,0000.0,0014.42,0002.39,0000.29
2021-12-09 02:06:00,,0810.8,5.00,0.00,23.0,22.0,00.0,32.0,24.8,13.7,0000.0,0015.46,0002.58,0000.31
2021-12-09 02:07:00,,0810.8,5.00,0.00,23.0,22.0,00.0,32.0,24.8,13.8,0000.0,0016.25,0002.66,0000.32
2021-12-09 02:08:00,,0810.7,5.00,0.00,23.0,22.0,00.0,32.0,24.7,13.7,0000.0,0016.26,0002.60,0000.31
2021-12-09 02:09:00,,0810.9,5.00,0.00,22.9,22.0,00.0,32.0,24.7,13.7,0000.0,0016.15,0002.57,0000.32
2021-12-09 02:10:00,,0810.9,4.99,0.00,22.9,21.9,00.0,32.0,24.7,13.8,0000.0,0015.59,0002.57,0000.33
2021-12-09 02:11:00,,0810.7,4.99,0.00,22.9,21.9,00.0,32.0,24.7,13.9,0000.0,0014.78,0002.57,0000.32
2021-12-09 02:12:00,,0810.8,5.00,0.00,22.9,21.9,00.0,32.0,24.7,13.9,0000.0,0015.26,0002.57,0000.33
2021-12-09 02:13:00,,0810.8,4.99,0.00,22.9,21.9,00.0,32.0,24.7,13.9,0000.0,0015.51,0002.64,0000.34
2021-12-09 02:14:00,,0810.9,5.00,0.00,22.9,21.9,00.0,32.0,24.7,14.0,0000.0,0015.24,0002.65,0000.34
2021-12-09 02:15:00,,0810.9,5.00,0.00,22.9,21.9,00.0,32.0,24.7,13.9,0000.0,0013.49,0002.47,0000.33
2021-12-09 02:16:00,,0810.9,5.01,0.00,22.9,21.9,00.0,31.9,24.6,14.1,0000.0,0012.70,0002.28,0000.31
2021-12-09 02:17:00,,0810.9,4.99,0.00,22.9,21.9,00.0,31.9,24.6,14.2,0000.0,0011.63,0002.09,0000.29
2021-12-09 02:18:00,,0810.9,5.01,0.00,22.8,21.9,00.0,31.9,24.6,14.2,0000.0,0011.92,0001.98,0000.29
2021-12-09 02:19:00,,0810.9,4.99,0.00,22.8,21.9,00.0,31.9,24.6,14.1,0000.0,0011.24,0001.90,0000.29
2021-12-09 02:20:00,,0811.0,5.00,0.00,22.8,21.9,00.0,31.9,24.6,14.1,0000.0,0012.14,0001.88,0000.29
2021-12-09 02:21:00,,0811.0,5.00,0.00,22.8,21.8,00.0,31.9,24.6,14.3,0000.0,0013.39,0001.93,0000.30
2021-12-09 02:22:00,,0811.0,5.01,0.00,22.8,21.8,00.0,31.9,24.6,14.3,0000.0,0013.62,0002.01,0000.30
2021-12-09 02:23:00,,0811.1,5.00,0.00,22.8,21.8,00.0,31.9,24.6,14.3,0000.0,0013.33,0001.95,0000.28
2021-12-09 02:24:00,,0811.0,5.00,0.00,22.8,21.8,00.0,31.9,24.5,14.5,0000.0,0012.80,0001.81,0000.27
2021-12-09 02:25:00,,0811.0,5.00,0.00,22.8,21.8,00.0,31.9,24.5,14.6,0000.0,0012.72,0001.67,0000.26
2021-12-09 02:26:00,,0810.7,5.00,0.00,22.8,21.8,00.0,31.9,24.5,14.7,0000.0,0012.69,0001.58,0000.25
2021-12-09 02:27:00,,0810.7,4.99,0.00,22.7,21.8,00.0,31.9,24.5,14.7,0000.0,0012.58,0001.53,0000.26
2021-12-09 02:28:00,,0811.0,5.01,0.00,22.7,21.8,00.0,31.8,24.5,14.7,0000.0,0012.13,0001.55,0000.28
2021-12-09 02:29:00,,0811.1,5.00,0.00,22.7,21.8,00.0,31.8,24.4,14.7,0000.0,0010.88,0001.51,0000.28
2021-12-09 02:30:00,,0811.1,4.99,0.00,22.7,21.8,00.0,31.8,24.5,14.8,0000.0,0010.46,0001.48,0000.28
2021-12-09 02:31:00,,0811.1,5.00,0.00,22.7,21.8,00.0,31.8,24.5,14.8,0000.0,0008.77,0001.36,0000.27
2021-12-09 02:32:00,,0811.2,4.99,0.00,22.7,21.8,00.0,31.8,24.4,14.8,0000.0,0006.60,0001.17,0000.25
2021-12-09 02:33:00,,0811.3,4.99,0.00,22.7,21.8,00.0,31.8,24.5,14.7,0000.0,0005.56,0000.95,0000.24
2021-12-09 02:34:00,,0811.4,5.01,0.00,22.7,21.8,00.0,31.8,24.4,14.7,0000.0,0004.46,0000.79,0000.24
2021-12-09 02:35:00,,0811.5,5.00,0.00,22.7,21.8,00.0,31.8,24.4,14.7,0000.0,0004.20,0000.75,0000.23
2021-12-09 02:36:00,,0811.6,4.98,0.00,22.7,21.7,00.0,31.8,24.3,14.6,0000.0,0003.82,0000.75,0000.23
2021-12-09 02:37:00,,0811.5,5.01,0.00,22.7,21.7,00.0,31.8,24.3,14.5,0000.0,0003.43,0000.71,0000.23
2021-12-09 02:38:00,,0811.4,4.99,0.00,22.7,21.7,00.0,31.8,24.3,14.3,0000.0,0003.24,0000.68,0000.22
2021-12-09 02:39:00,,0811.3,4.99,0.00,22.7,21.8,00.0,31.8,24.4,14.2,0000.0,0002.94,0000.59,0000.20
2021-12-09 02:40:00,,0811.3,5.00,0.00,22.7,21.8,00.0,31.8,24.4,14.1,0000.0,0002.57,0000.53,0000.19
2021-12-09 02:41:00,,0811.4,5.02,0.00,22.7,21.9,00.0,31.8,24.4,14.0,0000.0,0002.50,0000.54,0000.19
2021-12-09 02:42:00,,0811.4,5.00,0.00,22.7,21.9,00.0,31.8,24.4,14.1,0000.0,0002.54,0000.55,0000.18
2021-12-09 02:43:00,,0811.2,5.00,0.00,22.7,21.9,00.0,31.8,24.4,14.1,0000.0,0002.58,0000.56,0000.18
2021-12-09 02:44:00,,0811.3,5.00,0.00,22.7,21.9,00.0,31.8,24.4,14.0,0000.0,0002.62,0000.57,0000.18
2021-12-09 02:45:00,,0811.2,4.99,0.00,22.7,21.8,00.0,31.8,24.4,14.1,0000.0,0002.67,0000.60,0000.19
2021-12-09 02:46:00,,0811.2,5.01,0.00,22.7,21.9,00.0,31.8,24.5,14.0,0000.0,0002.13,0000.63,0000.19
2021-12-09 02:47:00,,0811.3,5.00,0.00,22.7,21.8,00.0,31.8,24.5,13.9,0000.0,0001.98,0000.75,0000.20
2021-12-09 02:48:00,,0811.3,5.00,0.00,22.7,21.8,00.0,31.8,24.4,13.7,0000.0,0002.43,0000.86,0000.22
2021-12-09 02:49:00,,0811.3,4.99,0.00,22.7,21.8,00.0,31.8,24.3,13.9,0000.0,0002.42,0000.86,0000.22
2021-12-09 02:50:00,,0811.2,5.02,0.00,22.7,21.8,00.0,31.8,24.3,14.1,0000.0,0002.37,0000.83,0000.22
2021-12-09 02:51:00,,0811.2,4.98,0.00,22.7,21.8,00.0,31.8,24.4,14.2,0000.0,0002.31,0000.80,0000.23
2021-12-09 02:52:00,,0811.2,5.00,0.00,22.7,21.8,00.0,31.8,24.4,14.2,0000.0,0002.22,0000.76,0000.22
2021-12-09 02:53:00,,0811.3,5.01,0.00,22.7,21.8,00.0,31.8,24.3,14.2,0000.0,0002.16,0000.74,0000.22
2021-12-09 02:54:00,,0811.3,4.99,0.00,22.7,21.8,00.0,31.8,24.3,14.2,0000.0,0002.13,0000.73,0000.22
2021-12-09 02:55:00,,0811.3,4.99,0.00,22.7,21.9,00.0,31.8,24.4,14.2,0000.0,0002.01,0000.70,0000.21
2021-12-09 02:56:00,,0811.4,5.00,0.00,22.7,21.8,00.0,31.8,24.3,14.2,0000.0,0001.98,0000.68,0000.20
2021-12-09 02:57:00,,0811.3,4.99,0.00,22.7,21.9,00.0,31.8,24.4,14.2,0000.0,0001.96,0000.65,0000.20
2021-12-09 02:58:00,,0811.3,5.00,0.00,22.7,21.9,00.0,31.8,24.3,14.2,0000.0,0001.38,0000.52,0000.19
2021-12-09 02:59:00,,0811.3,5.01,0.00,22.7,21.8,00.0,31.8,24.3,14.3,0000.0,0000.76,0000.37,0000.16
